SCP
0 0 0 0 0 0 0 0 0 0 0 0 0 0 0 0 0 0 0 0 0 0 0 0 0 0 0 0 0 0 0 0 0 0 0 -0 0 0
0 0 0 0 0 0 0 0 0 0 0 0 0 0 0 0 0 0 0 0 0 0 0 0 0 0 0 0 0 0 0 0 0 0 0 0 0 0
0 0 0 0 0 0 0 0 0 0 0 0 0 0 0 0 0 0 0 0 0 0 0 0 0 0 0 0 0 0 0 0 0 0 0 0 0 0
0 0 0 0 0 0 0 0 0 0 0 0 0 0 0 0 0 0 0 0 0 0 0 0 0 0 0 0 0 0 0 0 0 0 0 -0 0 0
0 0 0 0 0 0 0 0 0 0 0 0 0 0 0 0 0 0 0 0 0 0 0 0 0 0 0 0 0 0 0 0 0 -0 -0 -0 -0 -0
0 0 0 0 0 0 0 0 0 0 0 0 0 0 0 0 0 0 0 0 0 0 0 0 0 0 0 0 0 0 0 -0 -0 -0 -0 0 -0 -0
0 0 0 0 0 0 0 0 0 0 0 0 0 0 0 0 0 0 0 0 0 0 0 0 0 0 0 0 0 0 0 0 0 -0 -0 -0 -0 -0
0 0 0 0 0 0 0 0 0 0 0 0 0 0 0 0 0 0 0 0 0 0 0 0 0 0 0 0 0 0 0 0 -0 -0 -0 -0 -0 -0
0 0 0 0 0 0 0 0 0 0 0 0 0 0 0 0 0 0 0 0 0 0 0 0 0 0 0 0 0 0 0 0 -0 0 0 -0 -0 -0
0 0 0 0 0 0 0 0 0 0 0 0 0 0 0 0 0 0 0 0 0 0 0 0 0 0 0 0 0 0 0 0 0 0 0 -0 -0 -0
0 0 0 0 0 0 0 0 0 0 0 0 0 0 0 0 0 0 0 0 0 0 0 0 0 0 0 0 0 0 0 0 0 0 0 0 0 -0
0 0 0 0 0 0 0 0 0 0 0 0 0 0 0 0 0 0 0 0 0 0 0 0 0 0 0 0 0 0 0 0 0 0 0 0 0 0
0 0 0 -0 0 0 0 0 0 0 0 0 0 0 0 0 0 0 0 0 0 0 0 0 0 0 0 0 0 0 0 0 0 0 0 0 -0 0
0 0 0 -0 -0 0 0 0 0 0 0 0 0 0 0 0 0 0 0 0 0 0 0 0 0 0 0 0 0 0 0 0 0 0 0 0 0 -0
0 -0 -0 -0 0 0 0 0 0 0 0 0 0 0 0 0 0 0 0 0 0 0 0 0 0 0 0 0 0 0 0 0 0 0 0 0 -0 -0
-0 -0 -0 -0 0 0 0 0 0 0 0 0 0 0 0 0 0 0 0 0 0 0 0 0 0 0 0 0 0 0 0 0 0 0 0 0 -0 0
-0 -0 0 0 0 0 0 0 0 0 0 0 0 0 0 0 0 0 0 0 0 0 0 0 0 0 0 0 0 0 0 0 0 0 0 0 0 0
-0 -0 0 0 0 0 0 0 0 0 0 0 0 0 0 0 0 0 0 0 0 0 0 -0 0 0 0 0 0 0 0 0 0 0 0 0 0 0
-0 0 0 0 -0 -0 0 0 0 0 0 0 0 0 0 0 0 0 -0 0 0 0 0 0 0 0 0 0 0 0 0 0 0 0 0 0 0 0
-0 0 0 0 0 0 0 0 0 0 0 0 0 0 0 0 0 -0 -0 0 0 0 -0 0 0 0 0 0 0 0 0 0 0 0 0 0 0 0
0 0 0 0 0 0 0 0 0 0 0 0 0 0 0 0 0 -0 -0 -0 0 0 -0 -0 -0 0 0 0 0 0 0 0 0 0 0 0 0 0
0 0 0 0 0 0 0 0 0 0 0 0 0 0 0 0 0 0 -0 -0 0 0 0 -0 -0 0 0 0 0 0 0 0 0 0 -0 0 0 0
0 0 0 0 0 0 0 0 0 0 0 0 0 0 0 0 0 0 -0 -0 0 0 0 -0 -0 0 0 0 0 0 0 0 0 0 0 0 0 0
Wind_Speed_500mb
42 33 29 23 18 12 12 13 14 10 17 14 11 27 30 28 39 47 57 57 43 43 47 51 53 50 51 54 52 41 39 40 42 37 34 34 36 33
37 32 27 16 13 10 12 13 10 9 10 11 17 24 32 42 46 47 41 39 41 45 41 41 47 51 47 40 35 41 43 44 44 42 38 35 39 40
37 29 23 19 10 7 6 8 8 9 6 7 21 28 35 41 37 32 34 36 38 40 37 38 42 42 41 39 40 42 47 37 36 39 35 38 46 44
37 29 21 12 7 5 8 7 6 2 6 10 18 25 32 39 39 35 33 36 41 35 36 39 42 45 44 41 42 33 27 26 31 34 39 45 48 45
33 25 17 12 9 8 6 6 6 8 8 11 16 24 38 50 49 45 38 38 42 36 39 38 42 42 34 32 29 23 27 29 37 40 43 44 42 43
30 22 17 15 12 9 8 8 8 8 10 16 24 33 46 57 54 56 56 51 48 40 42 43 48 40 26 26 31 34 36 41 43 38 34 37 44 51
29 24 23 16 8 6 6 7 8 9 15 26 29 36 51 62 59 61 58 63 55 53 53 48 48 39 19 28 32 33 35 38 34 33 39 49 53 54
34 30 23 17 14 12 12 12 10 11 23 28 33 43 52 54 49 54 59 67 68 57 62 56 61 33 31 37 39 34 30 28 32 43 45 49 51 51
35 31 28 23 16 16 23 16 14 21 24 26 39 49 51 48 50 54 54 55 52 54 57 59 64 35 34 41 37 30 27 29 37 43 41 46 54 44
40 36 30 27 24 18 15 8 13 17 21 30 41 48 44 40 40 42 46 49 42 39 50 57 66 48 35 48 43 34 35 37 36 32 29 34 38 27
46 41 34 29 24 17 8 9 15 19 22 34 42 37 32 30 32 40 46 49 53 46 51 60 63 69 44 65 49 42 41 41 31 29 31 35 38 22
51 45 38 31 27 22 14 15 17 23 30 36 31 33 39 39 35 34 37 42 44 44 49 56 60 60 47 70 54 38 42 42 37 40 50 48 44 38
48 43 39 33 33 29 24 25 25 24 29 30 32 39 45 48 42 38 32 31 35 35 37 41 55 52 48 68 61 49 44 47 42 33 42 45 47 45
47 40 35 30 34 35 32 24 21 26 31 33 39 47 54 56 50 43 37 28 23 28 32 35 44 42 41 52 60 52 44 45 49 36 38 50 43 48
44 36 32 33 35 37 33 29 32 39 43 47 48 44 48 51 47 38 38 33 25 26 27 32 36 37 31 34 52 59 66 52 55 33 38 42 40 42
38 31 31 35 39 39 34 34 37 42 44 44 44 41 44 52 50 47 49 45 41 35 35 34 36 35 36 36 51 58 62 60 63 46 54 41 46 40
35 30 33 35 42 42 40 39 40 41 42 41 47 46 47 53 55 48 48 48 46 46 45 37 39 36 38 48 53 55 59 64 65 64 70 61 56 54
30 36 38 40 43 44 43 41 43 42 40 40 44 50 50 51 55 55 51 49 48 48 47 43 46 48 47 45 52 58 63 67 68 64 70 66 65 57
37 37 40 40 42 43 42 43 40 38 35 39 45 51 49 44 51 53 57 48 43 43 41 41 46 51 53 54 48 49 57 65 69 64 64 66 57 52
39 37 37 34 36 38 40 43 37 37 43 50 49 49 50 49 46 51 55 52 46 46 42 39 42 45 44 40 49 53 45 55 67 68 71 57 58 51
35 36 33 31 30 32 34 36 41 41 45 52 55 51 50 52 43 44 48 54 46 46 43 40 38 38 44 43 55 53 44 42 52 61 73 72 65 53
35 36 34 32 31 30 30 33 41 46 49 55 55 52 49 50 44 45 49 54 52 47 41 35 34 41 48 50 55 56 56 52 50 56 73 76 61 49
34 32 33 33 32 32 33 34 39 48 50 52 55 51 49 50 44 42 44 47 51 47 44 40 42 44 49 53 59 60 60 60 58 58 74 75 64 56
Wind_Direction_500mb
215 218 222 221 225 241 254 258 248 219 227 250 291 284 305 306 312 313 315 315 325 322 312 310 307 307 306 301 305 305 302 294 291 293 301 304 307 305
204 209 201 201 210 225 251 261 263 254 225 259 280 296 308 313 321 325 327 328 330 320 318 317 312 313 312 312 304 298 300 296 286 286 286 291 296 295
197 195 199 199 205 228 248 260 262 246 224 244 279 304 319 328 335 342 339 338 338 336 333 327 330 327 318 304 296 296 300 307 296 281 281 285 289 295
188 186 186 179 183 219 209 222 232 298 313 295 312 332 338 350 352 357 350 349 346 350 348 338 337 327 317 305 300 308 318 297 296 291 292 287 292 295
173 169 170 167 174 151 177 120 68 25 359 349 350 347 358 0 355 354 358 353 353 350 355 349 345 336 331 332 333 313 307 310 301 295 290 293 293 295
163 162 152 146 135 155 123 73 59 48 15 355 359 1 0 359 358 352 350 359 354 354 2 353 352 348 326 332 318 302 303 304 304 293 297 293 295 293
150 146 139 138 131 110 69 66 48 29 7 4 1 2 359 359 356 349 345 345 354 356 359 1 356 353 4 343 330 318 305 303 310 310 302 297 294 295
139 137 136 124 99 76 58 62 77 26 19 5 4 360 357 351 348 346 344 351 357 359 351 11 1 10 8 4 356 348 335 317 313 305 302 296 296 299
131 130 120 107 105 93 83 86 42 27 23 7 359 353 348 346 341 343 348 355 357 358 353 5 11 34 22 16 2 344 329 316 312 307 305 306 307 309
123 118 115 116 110 99 101 76 49 31 26 1 350 346 341 341 345 348 354 354 5 6 354 352 5 11 20 12 3 1 355 347 342 335 332 330 334 317
117 112 111 110 104 106 110 65 42 41 8 353 350 350 352 1 359 354 2 359 356 4 1 351 358 354 12 16 11 12 17 15 17 13 358 351 2 352
113 108 101 91 83 82 76 55 41 23 357 355 3 20 21 16 13 5 2 355 353 348 357 344 350 355 342 5 16 24 26 17 21 19 3 5 15 11
110 103 90 76 66 59 51 42 31 5 359 12 24 29 25 21 19 15 13 355 346 339 349 340 341 349 343 343 7 18 14 18 16 12 15 13 9 9
105 99 90 71 58 48 46 45 28 19 28 35 35 30 24 22 19 19 17 7 354 348 351 343 335 343 341 344 353 6 13 12 10 9 12 7 0 347
107 102 87 65 54 49 47 42 38 41 39 38 36 31 27 22 18 18 19 22 23 8 7 358 348 344 349 346 352 7 3 9 13 19 11 7 358 338
113 100 76 62 54 51 51 48 47 44 44 43 35 32 30 25 23 19 14 14 16 31 33 24 11 356 10 14 13 9 17 12 15 18 11 18 2 357
110 99 79 64 55 54 56 50 45 46 40 36 30 32 31 25 26 24 16 16 17 15 21 33 20 23 20 21 20 16 16 20 22 20 16 21 13 4
105 90 77 65 56 58 54 49 46 45 38 32 29 29 30 22 25 25 19 19 16 17 19 23 15 25 28 31 18 12 16 16 19 19 21 16 18 22
93 86 75 65 61 59 54 47 48 45 37 31 29 26 27 26 20 25 20 21 19 23 20 21 17 10 8 5 24 17 10 16 19 22 22 25 24 48
88 82 74 67 65 60 55 50 51 45 39 32 29 27 25 23 21 25 22 19 20 22 23 24 18 16 8 360 357 23 28 25 31 21 24 37 56 77
89 85 77 72 72 63 57 51 47 44 38 33 30 26 24 21 28 27 26 24 24 24 25 22 20 22 23 27 23 29 43 45 42 34 26 42 56 76
89 87 83 79 75 66 60 52 45 43 38 35 29 28 25 25 29 29 30 21 24 29 31 26 30 32 31 34 33 36 40 60 61 60 54 46 51 50
91 88 86 79 73 67 60 52 46 42 39 33 29 29 25 28 33 35 34 27 24 32 35 40 43 44 42 43 40 43 51 57 69 69 68 64 66 76
Wind_Speed_850mb
42 33 29 23 18 12 12 13 14 10 17 14 11 27 30 28 39 47 57 57 43 43 47 51 53 50 51 54 52 41 39 40 42 37 34 34 36 33
37 32 27 16 13 10 12 13 10 9 10 11 17 24 32 42 46 47 41 39 41 45 41 41 47 51 47 40 35 41 43 44 44 42 38 35 39 40
37 29 23 19 10 7 6 8 8 9 6 7 21 28 35 41 37 32 34 36 38 40 37 38 42 42 41 39 40 42 47 37 36 39 35 38 46 44
37 29 21 12 7 5 8 7 6 2 6 10 18 25 32 39 39 35 33 36 41 35 36 39 42 45 44 41 42 33 27 26 31 34 39 45 48 45
33 25 17 12 9 8 6 6 6 8 8 11 16 24 38 50 49 45 38 38 42 36 39 38 42 42 34 32 29 23 27 29 37 40 43 44 42 43
30 22 17 15 12 9 8 8 8 8 10 16 24 33 46 57 54 56 56 51 48 40 42 43 48 40 26 26 31 34 36 41 43 38 34 37 44 51
29 24 23 16 8 6 6 7 8 9 15 26 29 36 51 62 59 61 58 63 55 53 53 48 48 39 19 28 32 33 35 38 34 33 39 49 53 54
34 30 23 17 14 12 12 12 10 11 23 28 33 43 52 54 49 54 59 67 68 57 62 56 61 33 31 37 39 34 30 28 32 43 45 49 51 51
35 31 28 23 16 16 23 16 14 21 24 26 39 49 51 48 50 54 54 55 52 54 57 59 64 35 34 41 37 30 27 29 37 43 41 46 54 44
40 36 30 27 24 18 15 8 13 17 21 30 41 48 44 40 40 42 46 49 42 39 50 57 66 48 35 48 43 34 35 37 36 32 29 34 38 27
46 41 34 29 24 17 8 9 15 19 22 34 42 37 32 30 32 40 46 49 53 46 51 60 63 69 44 65 49 42 41 41 31 29 31 35 38 22
51 45 38 31 27 22 14 15 17 23 30 36 31 33 39 39 35 34 37 42 44 44 49 56 60 60 47 70 54 38 42 42 37 40 50 48 44 38
48 43 39 33 33 29 24 25 25 24 29 30 32 39 45 48 42 38 32 31 35 35 37 41 55 52 48 68 61 49 44 47 42 33 42 45 47 45
47 40 35 30 34 35 32 24 21 26 31 33 39 47 54 56 50 43 37 28 23 28 32 35 44 42 41 52 60 52 44 45 49 36 38 50 43 48
44 36 32 33 35 37 33 29 32 39 43 47 48 44 48 51 47 38 38 33 25 26 27 32 36 37 31 34 52 59 66 52 55 33 38 42 40 42
38 31 31 35 39 39 34 34 37 42 44 44 44 41 44 52 50 47 49 45 41 35 35 34 36 35 36 36 51 58 62 60 63 46 54 41 46 40
35 30 33 35 42 42 40 39 40 41 42 41 47 46 47 53 55 48 48 48 46 46 45 37 39 36 38 48 53 55 59 64 65 64 70 61 56 54
30 36 38 40 43 44 43 41 43 42 40 40 44 50 50 51 55 55 51 49 48 48 47 43 46 48 47 45 52 58 63 67 68 64 70 66 65 57
37 37 40 40 42 43 42 43 40 38 35 39 45 51 49 44 51 53 57 48 43 43 41 41 46 51 53 54 48 49 57 65 69 64 64 66 57 52
39 37 37 34 36 38 40 43 37 37 43 50 49 49 50 49 46 51 55 52 46 46 42 39 42 45 44 40 49 53 45 55 67 68 71 57 58 51
35 36 33 31 30 32 34 36 41 41 45 52 55 51 50 52 43 44 48 54 46 46 43 40 38 38 44 43 55 53 44 42 52 61 73 72 65 53
35 36 34 32 31 30 30 33 41 46 49 55 55 52 49 50 44 45 49 54 52 47 41 35 34 41 48 50 55 56 56 52 50 56 73 76 61 49
34 32 33 33 32 32 33 34 39 48 50 52 55 51 49 50 44 42 44 47 51 47 44 40 42 44 49 53 59 60 60 60 58 58 74 75 64 56
Wind_Direction_850mb
215 218 222 221 225 241 254 258 248 219 227 250 291 284 305 306 312 313 315 315 325 322 312 310 307 307 306 301 305 305 302 294 291 293 301 304 307 305
204 209 201 201 210 225 251 261 263 254 225 259 280 296 308 313 321 325 327 328 330 320 318 317 312 313 312 312 304 298 300 296 286 286 286 291 296 295
197 195 199 199 205 228 248 260 262 246 224 244 279 304 319 328 335 342 339 338 338 336 333 327 330 327 318 304 296 296 300 307 296 281 281 285 289 295
188 186 186 179 183 219 209 222 232 298 313 295 312 332 338 350 352 357 350 349 346 350 348 338 337 327 317 305 300 308 318 297 296 291 292 287 292 295
173 169 170 167 174 151 177 120 68 25 359 349 350 347 358 0 355 354 358 353 353 350 355 349 345 336 331 332 333 313 307 310 301 295 290 293 293 295
163 162 152 146 135 155 123 73 59 48 15 355 359 1 0 359 358 352 350 359 354 354 2 353 352 348 326 332 318 302 303 304 304 293 297 293 295 293
150 146 139 138 131 110 69 66 48 29 7 4 1 2 359 359 356 349 345 345 354 356 359 1 356 353 4 343 330 318 305 303 310 310 302 297 294 295
139 137 136 124 99 76 58 62 77 26 19 5 4 360 357 351 348 346 344 351 357 359 351 11 1 10 8 4 356 348 335 317 313 305 302 296 296 299
131 130 120 107 105 93 83 86 42 27 23 7 359 353 348 346 341 343 348 355 357 358 353 5 11 34 22 16 2 344 329 316 312 307 305 306 307 309
123 118 115 116 110 99 101 76 49 31 26 1 350 346 341 341 345 348 354 354 5 6 354 352 5 11 20 12 3 1 355 347 342 335 332 330 334 317
117 112 111 110 104 106 110 65 42 41 8 353 350 350 352 1 359 354 2 359 356 4 1 351 358 354 12 16 11 12 17 15 17 13 358 351 2 352
113 108 101 91 83 82 76 55 41 23 357 355 3 20 21 16 13 5 2 355 353 348 357 344 350 355 342 5 16 24 26 17 21 19 3 5 15 11
110 103 90 76 66 59 51 42 31 5 359 12 24 29 25 21 19 15 13 355 346 339 349 340 341 349 343 343 7 18 14 18 16 12 15 13 9 9
105 99 90 71 58 48 46 45 28 19 28 35 35 30 24 22 19 19 17 7 354 348 351 343 335 343 341 344 353 6 13 12 10 9 12 7 0 347
107 102 87 65 54 49 47 42 38 41 39 38 36 31 27 22 18 18 19 22 23 8 7 358 348 344 349 346 352 7 3 9 13 19 11 7 358 338
113 100 76 62 54 51 51 48 47 44 44 43 35 32 30 25 23 19 14 14 16 31 33 24 11 356 10 14 13 9 17 12 15 18 11 18 2 357
110 99 79 64 55 54 56 50 45 46 40 36 30 32 31 25 26 24 16 16 17 15 21 33 20 23 20 21 20 16 16 20 22 20 16 21 13 4
105 90 77 65 56 58 54 49 46 45 38 32 29 29 30 22 25 25 19 19 16 17 19 23 15 25 28 31 18 12 16 16 19 19 21 16 18 22
93 86 75 65 61 59 54 47 48 45 37 31 29 26 27 26 20 25 20 21 19 23 20 21 17 10 8 5 24 17 10 16 19 22 22 25 24 48
88 82 74 67 65 60 55 50 51 45 39 32 29 27 25 23 21 25 22 19 20 22 23 24 18 16 8 360 357 23 28 25 31 21 24 37 56 77
89 85 77 72 72 63 57 51 47 44 38 33 30 26 24 21 28 27 26 24 24 24 25 22 20 22 23 27 23 29 43 45 42 34 26 42 56 76
89 87 83 79 75 66 60 52 45 43 38 35 29 28 25 25 29 29 30 21 24 29 31 26 30 32 31 34 33 36 40 60 61 60 54 46 51 50
91 88 86 79 73 67 60 52 46 42 39 33 29 29 25 28 33 35 34 27 24 32 35 40 43 44 42 43 40 43 51 57 69 69 68 64 66 76